Location: Unspecified
(0.0000°N, 0.0000°E)
Time: 02:30:52
(UTC+00:00)

deb Blok Kosmos - Visible Passes

Search period start: 06 December 2025 00:00
Search period end: 16 December 2025 00:00
Orbit: 1261 x 1713 km, 55.4° (Epoch: 04 December)

Date Brightness Start Highest point End Pass type
(mag) Time Alt. Az. Time Alt. Az. Time Alt. Az.
06 Dec ? 20:48:01 10° S 20:53:04 32° SSE 20:53:04 32° SSE visible
07 Dec ? 19:56:04 10° S 20:01:58 23° SE 20:01:58 23° SE visible
07 Dec ? 21:54:25 10° SW 21:57:42 26° SW 21:57:42 26° SW visible
08 Dec ? 19:07:46 10° SE 19:08:54 10° ESE 19:10:03 10° ESE visible
08 Dec ? 21:00:40 10° SSW 21:06:39 48° SSW 21:06:39 48° SSW visible
09 Dec ? 20:07:40 10° S 20:15:40 44° SE 20:15:40 44° SE visible
09 Dec ? 22:08:53 10° WSW 22:11:25 19° WSW 22:11:25 19° WSW visible
10 Dec ? 19:15:37 10° S 19:22:27 24° ESE 19:24:43 22° E visible
10 Dec ? 21:14:12 10° SW 21:20:29 46° WSW 21:20:29 46° WSW visible
11 Dec ? 18:26:20 10° SE 18:28:37 11° ESE 18:30:56 10° ESE visible
11 Dec ? 20:20:24 10° SSW 20:29:27 82° ESE 20:29:36 81° ESE visible
11 Dec ? 22:25:07 10° W 22:25:22 11° W 22:25:22 11° W visible
12 Dec ? 19:27:20 10° SSW 19:35:48 47° ESE 19:38:47 37° ENE visible
12 Dec ? 21:28:47 10° WSW 21:34:33 29° W 21:34:33 29° W visible
13 Dec ? 18:35:11 10° S 18:42:07 25° ESE 18:48:00 14° ENE visible
13 Dec ? 20:34:00 10° SW 20:42:51 57° WNW 20:43:47 55° NW visible
14 Dec ? 19:40:07 10° SSW 19:49:05 85° ESE 19:53:04 42° NE visible
14 Dec ? 21:45:17 10° W 21:48:50 15° WNW 21:48:50 15° WNW visible
15 Dec ? 18:47:00 10° SSW 18:55:27 49° ESE 19:02:23 19° NE visible
15 Dec ? 20:48:41 10° WSW 20:56:24 30° WNW 20:58:10 28° NW visible
